Weather in Cuncolim

India     15°15′25″N   74°06′39″E
temp.,
°C
wind,
m/s
gust,
m/s
humid.,
%
clouds,
%
prec.,
mm/h
press.,
hPa
HPBL,
m
8 march, mon
mon823:30+24nnw12740 0.0 101264
02:30+22e11800 0.0 101050
05:30+22ese11800 0.0 101034
08:30+29ene01500 0.0 1013204
11:30+36wsw44280 0.0 10131605
14:30+33wsw55440 0.0 1009686
17:30+30w33580 0.0 1008627
20:30+25ese11790 0.0 101133
9 march, tue
tue923:30+23se12790 0.0 101230
02:30+22se12810 0.0 101048
05:30+21ese12790 0.0 101053
08:30+27se11500 0.0 1013199
11:30+34sw33360 0.0 10141005
14:30+33wsw66420 0.0 1010735
17:30+30w44510 0.0 1009528
20:30+24nne11720 0.0 101261
10 march, wed
wed1023:30+23e11750 0.0 101233
02:30+22ese11720 0.0 101035
05:30+21ene11660 0.0 101035
08:30+28ese11400 0.0 1014151
11:30+35wsw43290 0.0 10131073
14:30+33w55420 0.0 1009562
17:30+30wnw45510 0.0 1007393
20:30+24nnw12800 0.0 101076
11 march, thu
thu1123:30+23se12770 0.0 101158
02:30+22s11720 0.0 101046
05:30+21se12730 0.0 101073
08:30+27ese11470 0.0 1012193
11:30+34sw44420 0.0 10121005
14:30+33wsw56450 0.0 1009692
17:30+29wnw45610 0.0 1008682
20:30+25nw23820 0.0 1011102
12 march, fri
fri1223:30+23nne12870 0.0 101385
02:30+22e118979 0.0 101155
05:30+21se118988 0.0 101137
08:30+27sse12620 0.0 1014286
11:30+34wsw33350 0.0 10141026
14:30+32w66450 0.0 1010520
17:30+30nw45520 0.0 1009554
20:30+24nw12800 0.0 101161